Location: Poughquag
(41.6090°N, 73.6820°W)
Time: 08:26:07
(UTC-05:00)

STRAND 1 - Pass Details

Date: 06 December 2023
Orbit: 766 x 778 km, 98.4° (Epoch: 24 February)

Event Time Altitude Azimuth Distance (km) Brightness Sun altitude
Rises 05:14:51 0° 155° (SSE) 3,233 ? -20.3°
Reaches altitude 10° 05:17:10 10° 151° (SSE) 2,308 ? -19.8°
Maximum altitude 05:22:10 60° 73° (ENE) 878 ? -18.9°
Drops below altitude 10° 05:27:11 10° 354° (N) 2,317 ? -18.0°
Sets 05:29:31 0° 351° (N) 3,246 ? -17.6°
